This is the latest recevied weather packets stored in our database for station/object K3RTA-2. If no packets are shown the sender has not sent any weather packets the latest 10 day(s).
| Time | Temp. | Humidity | Pressure | Rain* | Wind** | Luminosity | Snow |
|---|---|---|---|---|---|---|---|
| 1777605605 | 12.78° C | 68% | 1012.5 hPa | 0 mm | - | - | - |
| 1777604404 | 13.33° C | 69% | 1012.3 hPa | 0 mm | - | - | - |
| 1777604103 | 13.33° C | 69% | 1012.2 hPa | 0 mm | - | - | - |
| 1777601104 | 14.44° C | 67% | 1011.6 hPa | 0 mm | - | - | - |
| 1777598405 | 15.56° C | 63% | 1010.5 hPa | 0 mm | - | - | - |
| 1777598105 | 16.11° C | 62% | 1010.4 hPa | 0 mm | - | - | - |
| 1777597505 | 16.11° C | 59% | 1010 hPa | 0 mm | - | - | - |
| 1777593604 | 16.11° C | 57% | 1008.9 hPa | 0 mm | - | - | - |
| 1777592704 | 16.67° C | 55% | 1008.8 hPa | 0 mm | - | - | - |
| 1777590905 | 17.78° C | 52% | 1008.5 hPa | 0 mm | - | - | - |
| 1777588505 | 18.89° C | 49% | 1008.3 hPa | 0 mm | - | - | - |
| 1777587905 | 18.89° C | 49% | 1008.2 hPa | 0 mm | - | - | - |
| 1777585204 | 18.89° C | 64% | 1008.2 hPa | 0 mm | - | - | - |
| 1777584904 | 18.89° C | 63% | 1008.2 hPa | 0 mm | - | - | - |
| 1777584604 | 18.89° C | 64% | 1008 hPa | 0 mm | - | - | - |
| 1777584005 | 18.89° C | 64% | 1008.1 hPa | 0 mm | - | - | - |
| 1777583404 | 18.89° C | 65% | 1007.9 hPa | 0 mm | - | - | - |
| 1777582804 | 18.33° C | 65% | 1007.9 hPa | 0 mm | - | - | - |
| 1777581905 | 18.89° C | 64% | 1007.7 hPa | 0 mm | - | - | - |
| 1777581305 | 18.33° C | 66% | 1007.5 hPa | 0 mm | - | - | - |
| 1777580705 | 18.89° C | 64% | 1007.4 hPa | 0 mm | - | - | - |
| 1777577705 | 18.33° C | 70% | 1007.4 hPa | 0 mm | - | - | - |
| 1777575305 | 17.78° C | 70% | 1007.4 hPa | 0 mm | - | - | - |
| 1777572904 | 17.78° C | 72% | 1007.4 hPa | 0 mm | - | - | - |
| 1777570204 | 18.89° C | 71% | 1007.5 hPa | 0 mm | - | - | - |
* Rain latest hour (hover to see other rain measurements)
** Current wind speed in m/s (hover to see current wind gust speed)